NSS-12

Last updated on Wed Jul 16 2025 00:02:46 GMT+0000 (Coordinated Universal Time)

1 36032U 09058A 25196.49853690 .00000079 00000+0 00000+0 0 9997 2 36032 0.0902 279.0637 0003518 169.7744 81.2351 1.00270465 57542
UTC large
Height (km)
Speed (km/s)
/
Latitude / Longitude
Inclination (degrees)
Orbital Period (minutes)
Azimuth
Elevation
Range (km)
Doppler Factor

Next 0 passes for location: London (51.5072 / 0.1276)

Sorry there are no passes over London.